This is the latest recevied weather packets stored in our database for station/object KN6CRX. If no packets are shown the sender has not sent any weather packets the latest 10 day(s).
| Time | Temp. | Humidity | Pressure | Rain* | Wind** | Luminosity | Snow |
|---|---|---|---|---|---|---|---|
| 1787627039 | 20.56° C | 51% | 1022.9 hPa | 0 mm | - | 0 W/m² | - |
| 1787626734 | 20.56° C | 51% | 1022.8 hPa | 0 mm | - | 0 W/m² | - |
| 1787626430 | 20.56° C | 51% | 1022.6 hPa | 0 mm | - | 0 W/m² | - |
| 1787626124 | 20.56° C | 50% | 1022.6 hPa | 0 mm | - | 0 W/m² | - |
| 1787625820 | 20.56° C | 50% | 1022.4 hPa | 0 mm | - | 0 W/m² | - |
| 1787625516 | 20.56° C | 51% | 1022.4 hPa | 0 mm | - | 0 W/m² | - |
| 1787625211 | 20.56° C | 52% | 1022.2 hPa | 0 mm | - | 0 W/m² | - |
| 1787624908 | 20.56° C | 51% | 1022.3 hPa | 0 mm | - | 0 W/m² | - |
| 1787624606 | 20.56° C | 52% | 1022.2 hPa | 0 mm | - | 1 W/m² | - |
| 1787624303 | 20.56° C | 52% | 1022.4 hPa | 0 mm | - | 2 W/m² | - |
| 1787623998 | 20.56° C | 53% | 1022.2 hPa | 0 mm | - | 3 W/m² | - |
| 1787623693 | 20.56° C | 54% | 1022.3 hPa | 0 mm | - | 5 W/m² | - |
| 1787623392 | 20.56° C | 56% | 1022.3 hPa | 0 mm | - | 6 W/m² | - |
| 1787623091 | 20.56° C | 56% | 1022.1 hPa | 0 mm | - | 9 W/m² | - |
| 1787622787 | 20.56° C | 56% | 1022.3 hPa | 0 mm | - | 11 W/m² | - |
| 1787622483 | 20.56° C | 56% | 1022.4 hPa | 0 mm | - | 14 W/m² | - |
| 1787622179 | 20.56° C | 57% | 1022.3 hPa | 0 mm | - | 17 W/m² | - |
| 1787621878 | 20.56° C | 58% | 1022.4 hPa | 0 mm | - | 22 W/m² | - |
| 1787621573 | 20° C | 59% | 1022.4 hPa | 0 mm | - | 28 W/m² | - |
| 1787621269 | 20° C | 60% | 1022.5 hPa | 0 mm | - | 37 W/m² | - |
| 1787620965 | 20° C | 63% | 1022.6 hPa | 0 mm | - | 36 W/m² | - |
| 1787620665 | 20° C | 64% | 1022.8 hPa | 0 mm | - | 24 W/m² | - |
| 1787620361 | 20° C | 65% | 1022.6 hPa | 0 mm | - | 28 W/m² | - |
| 1787620057 | 20° C | 63% | 1022.3 hPa | 0 mm | - | 41 W/m² | - |
| 1787619756 | 20.56° C | 61% | 1022.6 hPa | 0 mm | - | 54 W/m² | - |
* Rain latest hour (hover to see other rain measurements)
** Current wind speed in m/s (hover to see current wind gust speed)